Weather History for KDAY - January, 2015

Change the Weather History Date:

Thursday, January 1, 2015

  Actual Average Record
Temperature  
Mean Temperature 28 °F 28 °F  
Max Temperature 37 °F 35 °F 61 °F (1952)
Min Temperature 19 °F 21 °F -8 °F (1968)
Degree Days  
Heating Degree Days 37 37  
Month to date heating degree days 37 37  
Since 1 July heating degree days 2166 2196  
Cooling Degree Days 0 0  
Month to date cooling degree days 0 0  
Year to date cooling degree days 0 0  
Moisture  
Dew Point 15 °F    
Average Humidity 56    
Maximum Humidity 67    
Minimum Humidity 44    
Precipitation  
Precipitation 0.00 in 0.10 in 1.65 in (1948)
Month to date precipitation 0.00 0.10  
Year to date precipitation 0.00 0.10  
Snow  
Snow 0.00 in 0.20 in 9.80 in (1964)
Month to date snowfall 0.0 0.2  
Since 1 July snowfall 4.2 5.7  
Snow Depth 0.00 in    
Sea Level Pressure  
Sea Level Pressure 30.18 in    
Wind  
Wind Speed 16 mph (SW)    
Max Wind Speed 29 mph    
Max Gust Speed 35 mph    
Visibility 10 miles    
Events      
T = Trace of Precipitation, MM = Missing Value Source: NWS Daily Summary

Daily Weather History Graph

Daily Weather History Graph

Search for Another Location

Airport or City:

Trip Planner

Search our weather history database for the weather conditions in past years. The results will help you decide how hot, cold, wet, or windy it might be!

Date:

Astronomy

Jan. 01, 2015 Rise Set
Actual Time 7:58 AM EST 5:22 PM EST
Civil Twilight 7:28 AM EST 5:52 PM EST
Nautical Twilight 6:54 AM EST 6:26 PM EST
Astronomical Twilight 6:21 AM EST 6:59 PM EST
Moon 2:55 PM EST (1/1) 4:26 AM EST (1/1)
Length of Visible Light 10h 24m
Length of Day
9h 24m
Waxing Gibbous, 88% of the Moon is Illuminated
Jan 1
Waxing Gibbous
Jan 4
Full
Jan 13
Last Quarter
Jan 20
New
Jan 26
First Quarter

Hourly Weather History & Observations

Time (EST) Temp. Windchill Dew Point Humidity Pressure Visibility Wind Dir Wind Speed Gust Speed Precip Events Conditions
12:56 AM 19.9 °F 5.7 °F 7.0 °F 57% 30.29 in 10.0 mi WSW 16.1 mph - N/A   Clear
1:56 AM 19.9 °F 6.7 °F 8.1 °F 60% 30.27 in 10.0 mi WSW 13.8 mph 24.2 mph N/A   Clear
2:56 AM 21.2 °F 6.8 °F 8.6 °F 58% 30.22 in 10.0 mi WSW 17.3 mph - N/A   Clear
3:56 AM 21.0 °F 6.6 °F 9.0 °F 60% 30.25 in 10.0 mi WSW 17.3 mph - N/A   Clear
4:56 AM 19.9 °F 7.3 °F 9.0 °F 62% 30.23 in 10.0 mi SW 12.7 mph - N/A   Clear
5:56 AM 19.9 °F 7.3 °F 9.0 °F 62% 30.22 in 10.0 mi SW 12.7 mph - N/A   Clear
6:56 AM 19.4 °F 6.0 °F 10.4 °F 68% 30.18 in 10.0 mi SSW 13.8 mph - N/A   Clear
7:56 AM 19.4 °F 6.0 °F 10.4 °F 68% 30.16 in 10.0 mi SSW 13.8 mph - N/A   Partly Cloudy
8:56 AM 21.0 °F 8.1 °F 10.9 °F 65% 30.20 in 10.0 mi SW 13.8 mph - N/A   Scattered Clouds
9:56 AM 24.1 °F 11.0 °F 12.0 °F 60% 30.21 in 10.0 mi SW 16.1 mph - N/A   Mostly Cloudy
10:56 AM 27.0 °F 14.3 °F 14.0 °F 58% 30.20 in 10.0 mi SW 17.3 mph 27.6 mph N/A   Mostly Cloudy
11:56 AM 30.9 °F 17.8 °F 16.0 °F 54% 30.14 in 10.0 mi SW 23.0 mph 33.4 mph N/A   Mostly Cloudy
12:56 PM 35.1 °F 23.5 °F 18.0 °F 50% 30.13 in 10.0 mi SW 21.9 mph 31.1 mph N/A   Mostly Cloudy
1:56 PM 36.0 °F 24.2 °F 18.0 °F 48% 30.09 in 10.0 mi SW 24.2 mph 32.2 mph N/A   Mostly Cloudy
2:56 PM 37.0 °F 26.4 °F 18.0 °F 46% 30.09 in 10.0 mi SW 20.7 mph 29.9 mph N/A   Mostly Cloudy
3:56 PM 35.1 °F 24.1 °F 18.0 °F 50% 30.08 in 10.0 mi WSW 19.6 mph - N/A   Mostly Cloudy
4:56 PM 35.1 °F 24.5 °F 18.0 °F 50% 30.10 in 10.0 mi SW 18.4 mph 27.6 mph N/A   Mostly Cloudy
5:56 PM 34.0 °F 23.8 °F 19.0 °F 54% 30.12 in 10.0 mi WSW 16.1 mph - N/A   Mostly Cloudy
6:56 PM 33.1 °F 23.4 °F 19.9 °F 59% 30.15 in 10.0 mi WSW 13.8 mph - N/A   Mostly Cloudy
7:56 PM 32.0 °F 22.1 °F 19.9 °F 61% 30.18 in 10.0 mi WSW 13.8 mph - N/A   Mostly Cloudy
8:56 PM 30.9 °F 22.8 °F 19.9 °F 64% 30.19 in 10.0 mi WSW 9.2 mph - N/A   Overcast
9:56 PM 30.0 °F 20.0 °F 19.9 °F 66% 30.20 in 10.0 mi SW 12.7 mph - N/A   Overcast
10:56 PM 30.0 °F 19.1 °F 19.9 °F 66% 30.21 in 10.0 mi WSW 15.0 mph - N/A   Overcast
11:56 PM 30.0 °F 19.1 °F 19.9 °F 66% 30.21 in 10.0 mi WSW 15.0 mph - N/A   Overcast